Weather reports worldwide

Advertisment
Foggia Amendola, Italy (16261): temperature & dewpoint: 10.07.2018 18:00:00 - 16.07.2018 18:00:00 (CEST)Foggia Amendola, Italy (16261): wind speed: 10.07.2018 18:00:00 - 16.07.2018 18:00:00 (CEST)Foggia Amendola, Italy (16261): wind direction: 10.07.2018 18:00:00 - 16.07.2018 18:00:00 (CEST)Foggia Amendola, Italy (16261): reduced air pressure: 10.07.2018 18:00:00 - 16.07.2018 18:00:00 (CEST)Foggia Amendola, Italy (16261): visibility: 10.07.2018 18:00:00 - 16.07.2018 18:00:00 (CEST)Foggia Amendola, Italy (16261): sunshine duration: 10.07.2018 18:00:00 - 16.07.2018 18:00:00 (CEST)
Date & Time tt [°C] td [°C] ff [km/h] ff [kn] dd ppp [hPa] vv [km] sd [min]
16.07.2018 18:00:00 - - - - - - - -
16.07.2018 17:00:00 30,4 20,6 18 10 E 1012,5 20 6
16.07.2018 16:00:00 31,0 19,0 22 12 E - 10 -
16.07.2018 15:00:00 34,0 20,0 22 12 E - 10 -
16.07.2018 14:00:00 33,4 19,5 22 12 E 1011,7 20 60
16.07.2018 13:00:00 36,0 16,0 9 5 WNW - 10 -
16.07.2018 12:00:00 35,0 16,0 9 5 W - 10 -
16.07.2018 11:00:00 33,4 17,2 13 7 W 1013,0 20 60
16.07.2018 10:00:00 31,0 18,0 11 6 W - 10 -
16.07.2018 09:00:00 28,0 20,0 11 6 WSW - 10 -
16.07.2018 08:00:00 23,8 20,9 11 6 WNW 1013,0 20 30
16.07.2018 07:00:00 21,0 21,0 5 3 W - 10 -
16.07.2018 06:00:00 20,0 20,0 8 4 NW - 10 -
16.07.2018 05:00:00 - - - - - - - -
16.07.2018 04:00:00 - - - - - - - -
16.07.2018 03:00:00 - - - - - - - -
16.07.2018 02:00:00 - - - - - - - -
16.07.2018 01:00:00 - - - - - - - -
16.07.2018 00:00:00 - - - - - - - -
15.07.2018 23:00:00 - - - - - - - -
15.07.2018 22:00:00 - - - - - - - -
15.07.2018 21:00:00 - - - - - - - -
15.07.2018 20:00:00 - - - - - - - -
15.07.2018 19:00:00 - - - - - - - -
15.07.2018 18:00:00 - - - - - - - -
15.07.2018 17:00:00 - - - - - - - -
15.07.2018 16:00:00 - - - - - - - -
15.07.2018 15:00:00 - - - - - - - -
15.07.2018 14:00:00 - - - - - - - -
15.07.2018 13:00:00 - - - - - - - -
15.07.2018 12:00:00 - - - - - - - -
15.07.2018 11:00:00 - - - - - - - -
15.07.2018 10:00:00 - - - - - - - -
15.07.2018 09:00:00 - - - - - - - -
15.07.2018 08:00:00 - - - - - - - -
15.07.2018 07:00:00 - - - - - - - -
15.07.2018 06:00:00 - - - - - - - -
15.07.2018 05:00:00 - - - - - - - -
15.07.2018 04:00:00 - - - - - - - -
15.07.2018 03:00:00 - - - - - - - -
15.07.2018 02:00:00 - - - - - - - -
15.07.2018 01:00:00 - - - - - - - -
15.07.2018 00:00:00 - - - - - - - -
14.07.2018 23:00:00 - - - - - - - -
14.07.2018 22:00:00 - - - - - - - -
14.07.2018 21:00:00 - - - - - - - -
14.07.2018 20:00:00 - - - - - - - -
14.07.2018 19:00:00 - - - - - - - -
14.07.2018 18:00:00 - - - - - - - -
14.07.2018 17:00:00 - - - - - - - -
14.07.2018 16:00:00 - - - - - - - -
14.07.2018 15:00:00 - - - - - - - -
14.07.2018 14:00:00 - - - - - - - -
14.07.2018 13:00:00 - - - - - - - -
14.07.2018 12:00:00 - - - - - - - -
14.07.2018 11:00:00 - - - - - - - -
14.07.2018 10:00:00 - - - - - - - -
14.07.2018 09:00:00 - - - - - - - -
14.07.2018 08:00:00 - - - - - - - -
14.07.2018 07:00:00 - - - - - - - -
14.07.2018 06:00:00 - - - - - - - -
14.07.2018 05:00:00 - - - - - - - -
14.07.2018 04:00:00 - - - - - - - -
14.07.2018 03:00:00 - - - - - - - -
14.07.2018 02:00:00 - - - - - - - -
14.07.2018 01:00:00 - - - - - - - -
14.07.2018 00:00:00 - - - - - - - -
13.07.2018 23:00:00 - - - - - - - -
13.07.2018 22:00:00 - - - - - - - -
13.07.2018 21:00:00 - - - - - - - -
13.07.2018 20:00:00 27,8 20,1 11 6 SE 1015,4 20 54
13.07.2018 19:00:00 29,0 20,0 18 10 ESE - 10 -
13.07.2018 18:00:00 30,0 19,0 22 12 E - 10 -
13.07.2018 17:00:00 30,8 16,8 22 12 E 1014,8 20 60
13.07.2018 16:00:00 32,0 18,0 22 12 E - 10 -
13.07.2018 15:00:00 32,0 19,0 21 11 ENE - 10 -
13.07.2018 14:00:00 31,6 20,9 21 11 E 1015,6 20 60
13.07.2018 13:00:00 32,0 20,0 18 10 E - 10 -
13.07.2018 12:00:00 32,0 19,0 5 3 - - 10 -
13.07.2018 11:00:00 30,0 20,0 5 3 NW 1016,1 20 60
13.07.2018 10:00:00 28,0 21,0 9 5 NNW - 10 -
13.07.2018 09:00:00 27,0 21,0 13 7 WNW - 10 -
13.07.2018 08:00:00 24,2 20,3 11 6 W 1014,9 15 0
13.07.2018 07:00:00 20,0 17,0 11 6 W - 10 -
13.07.2018 06:00:00 20,0 18,0 11 6 W - 8 -
13.07.2018 05:00:00 20,6 18,5 11 6 WNW 1014,7 15 -
13.07.2018 04:00:00 21,0 19,0 9 5 WNW - 10 -
13.07.2018 03:00:00 21,0 20,0 8 4 WSW - 10 -
13.07.2018 02:00:00 21,8 20,1 8 4 W 1014,6 12 -
13.07.2018 01:00:00 23,0 22,0 8 4 W - 10 -
13.07.2018 00:00:00 24,0 22,0 2 1 - - 10 -
12.07.2018 23:00:00 23,6 22,8 5 3 NE 1014,3 12 -
12.07.2018 22:00:00 24,0 24,0 9 5 ENE - 10 -
12.07.2018 21:00:00 25,0 25,0 9 5 ENE - 10 -
12.07.2018 20:00:00 26,2 25,3 16 9 E 1013,9 15 18
12.07.2018 19:00:00 28,0 26,0 21 11 ESE - 10 -
12.07.2018 18:00:00 29,0 25,0 22 12 E - 10 -
12.07.2018 17:00:00 29,0 25,4 21 11 E 1013,6 20 60
12.07.2018 16:00:00 29,0 23,0 22 12 E - 10 -
12.07.2018 15:00:00 34,0 17,0 9 5 W - 10 -
12.07.2018 14:00:00 33,2 17,8 11 6 NW 1013,3 20 60
12.07.2018 13:00:00 33,0 17,0 15 8 WNW - 10 -
12.07.2018 12:00:00 32,0 18,0 16 9 W - 10 -
12.07.2018 11:00:00 30,0 18,1 18 10 WNW 1014,2 20 60
12.07.2018 10:00:00 29,0 18,0 24 13 WNW - 10 -
12.07.2018 09:00:00 28,0 21,0 22 12 W - 10 -
12.07.2018 08:00:00 25,8 19,4 15 8 WNW 1012,9 20 60
12.07.2018 07:00:00 23,0 20,0 11 6 W - 10 -
12.07.2018 06:00:00 21,0 20,0 15 8 W - 10 -
12.07.2018 05:00:00 20,6 20,1 13 7 WSW 1012,5 15 0
12.07.2018 04:00:00 20,0 20,0 9 5 W - 10 -
12.07.2018 03:00:00 22,0 20,0 11 6 SW - 10 -
12.07.2018 02:00:00 22,2 19,2 11 6 SW 1012,3 15 0
12.07.2018 01:00:00 22,0 21,0 9 5 W - 10 -
12.07.2018 00:00:00 22,0 22,0 5 3 WNW - 10 -
11.07.2018 23:00:00 - - - - - - - -
11.07.2018 22:00:00 - - - - - - - -
11.07.2018 21:00:00 - - - - - - - -
11.07.2018 20:00:00 27,2 23,7 8 4 E 1011,4 20 30
11.07.2018 19:00:00 27,0 23,0 11 6 E - 10 -
11.07.2018 18:00:00 28,0 24,0 16 9 E - 10 -
11.07.2018 17:00:00 28,6 23,5 18 10 E 1010,9 20 42
11.07.2018 16:00:00 30,0 19,0 26 14 E - 10 -
11.07.2018 15:00:00 32,0 17,0 9 5 E - 10 -
11.07.2018 14:00:00 34,8 12,5 13 7 W 1010,9 20 60
11.07.2018 13:00:00 34,0 14,0 18 10 WSW - 10 -
11.07.2018 12:00:00 33,0 14,0 11 6 WSW - 10 -
11.07.2018 11:00:00 30,8 14,9 5 3 NNE 1011,5 20 60
11.07.2018 10:00:00 29,0 15,0 4 2 - - 10 -
11.07.2018 09:00:00 26,0 18,0 5 3 - - 10 -
11.07.2018 08:00:00 22,8 18,1 5 3 ESE 1012,3 20 60
11.07.2018 07:00:00 21,0 19,0 2 1 - - 10 -
11.07.2018 06:00:00 19,0 19,0 8 4 S - 10 -
11.07.2018 05:00:00 19,0 19,0 5 3 S 1012,1 30 -
11.07.2018 04:00:00 20,0 20,0 5 3 ENE - 10 -
11.07.2018 03:00:00 21,0 20,0 5 3 E - 10 -
11.07.2018 02:00:00 21,0 21,0 8 4 ENE 1012,5 20 0
11.07.2018 01:00:00 - - - - - - - -
11.07.2018 00:00:00 - - - - - - - -
10.07.2018 23:00:00 - - - - - - - -
10.07.2018 22:00:00 - - - - - - - -
10.07.2018 21:00:00 - - - - - - - -
10.07.2018 20:00:00 26,6 21,4 15 8 ESE 1011,8 30 60
10.07.2018 19:00:00 28,0 21,0 18 10 ESE - 10 -
10.07.2018 18:00:00 29,0 18,0 18 10 ESE - 10 -

tt = temperature
td = dewpoint
ff = wind speed
dd = wind direction
ppp = reduced air pressure
vv = visibility
sd = sunshine duration

Next stations